When you browse on this site, cookies collect data to enhance your experience and personalize the content and advertising you see.
Visit our Privacy Policy to learn more. By continuing to use the site, you agree to this use of cookies and data.

Meteo pe oră la Seoni Malwa

Astăzi, 11 August, Marţi

Timp Temperatura Precipitaţii Vânt Presiune Umiditate
00:00 +27°C° 0.1 mm 3 m/s 724 mmHg 93%
01:00 +27°C° 0.1 mm 3 m/s 724 mmHg 94%
02:00 +27°C° 0.1 mm 4 m/s 724 mmHg 95%
03:00 +27°C° 0.1 mm 4 m/s 724 mmHg 95%
04:00 +26°C° 0.1 mm 4 m/s 724 mmHg 95%
05:00 +26°C° 0.1 mm 4 m/s 724 mmHg 96%
06:00 +27°C° 0.1 mm 4 m/s 724 mmHg 94%
07:00 +27°C° 0.1 mm 4 m/s 725 mmHg 93%
08:00 +28°C° 0.1 mm 4 m/s 725 mmHg 92%
09:00 +28°C° 0.7 mm 4 m/s 725 mmHg 90%
10:00 +29°C° 0.7 mm 5 m/s 725 mmHg 88%
11:00 +29°C° 0.7 mm 5 m/s 725 mmHg 87%
12:00 +30°C° 1.4 mm 6 m/s 725 mmHg 85%
13:00 +30°C° 1.4 mm 6 m/s 724 mmHg 83%
14:00 +32°C° 1.4 mm 7 m/s 723 mmHg 82%
15:00 +30°C° 0.2 mm 6 m/s 723 mmHg 83%
16:00 +30°C° 0.2 mm 6 m/s 723 mmHg 83%
17:00 +30°C° 0.2 mm 5 m/s 723 mmHg 84%
18:00 +29°C° 1 mm 5 m/s 724 mmHg 86%
19:00 +28°C° 1 mm 4 m/s 724 mmHg 88%
20:00 +28°C° 1 mm 4 m/s 725 mmHg 90%
21:00 +28°C° 1.3 mm 4 m/s 725 mmHg 90%
22:00 +28°C° 1.3 mm 4 m/s 725 mmHg 89%
23:00 +28°C° 1.3 mm 4 m/s 725 mmHg 88%

Mâine, 12 August, Miercuri

Timp Temperatura Precipitaţii Vânt Presiune Umiditate
00:00 +27°C° 1.3 mm 4 m/s 725 mmHg 91%
01:00 +27°C° 1.3 mm 4 m/s 724 mmHg 93%
02:00 +26°C° 1.3 mm 4 m/s 724 mmHg 96%
03:00 +26°C° 1.7 mm 4 m/s 724 mmHg 96%
04:00 +26°C° 1.7 mm 4 m/s 724 mmHg 96%
05:00 +26°C° 1.7 mm 4 m/s 724 mmHg 96%
06:00 +27°C° 0.7 mm 4 m/s 725 mmHg 96%
07:00 +27°C° 0.7 mm 4 m/s 725 mmHg 95%
08:00 +27°C° 0.7 mm 4 m/s 726 mmHg 94%
09:00 +27°C° 1.1 mm 5 m/s 726 mmHg 94%
10:00 +27°C° 1.1 mm 6 m/s 726 mmHg 94%
11:00 +27°C° 1.1 mm 6 m/s 726 mmHg 95%
12:00 +27°C° 1.4 mm 6 m/s 725 mmHg 95%
13:00 +27°C° 1.4 mm 6 m/s 725 mmHg 95%
14:00 +26°C° 1.4 mm 6 m/s 725 mmHg 96%
15:00 +26°C° 0.4 mm 5 m/s 724 mmHg 95%
16:00 +26°C° 0.4 mm 5 m/s 724 mmHg 95%
17:00 +26°C° 0.4 mm 4 m/s 724 mmHg 95%
18:00 +26°C° 0.1 mm 4 m/s 724 mmHg 95%
19:00 +26°C° 0.1 mm 4 m/s 725 mmHg 95%
20:00 +26°C° 0.1 mm 4 m/s 725 mmHg 94%
21:00 +26°C° 0.8 mm 5 m/s 726 mmHg 95%
22:00 +26°C° 0.8 mm 6 m/s 726 mmHg 95%
23:00 +26°C° 0.8 mm 6 m/s 726 mmHg 96%

Poimâine, 13 August, Joi

Timp Temperatura Precipitaţii Vânt Presiune Umiditate
00:00 +26°C° 0.3 mm 6 m/s 725 mmHg 96%
01:00 +26°C° 0.3 mm 6 m/s 725 mmHg 96%
02:00 +26°C° 0.3 mm 6 m/s 724 mmHg 96%
03:00 +26°C° 0.3 mm 6 m/s 724 mmHg 96%
04:00 +26°C° 0.3 mm 6 m/s 724 mmHg 96%
05:00 +26°C° 0.3 mm 6 m/s 724 mmHg 96%
06:00 +26°C° 0.8 mm 6 m/s 724 mmHg 95%
07:00 +26°C° 0.8 mm 6 m/s 725 mmHg 95%
08:00 +26°C° 0.8 mm 6 m/s 725 mmHg 94%
09:00 +26°C° 0.1 mm 6 m/s 725 mmHg 94%
10:00 +26°C° 0.1 mm 6 m/s 725 mmHg 93%
11:00 +26°C° 0.1 mm 6 m/s 725 mmHg 92%
12:00 +26°C° 0.1 mm 5 m/s 725 mmHg 92%
13:00 +26°C° 0.1 mm 5 m/s 724 mmHg 92%
14:00 +26°C° 0.1 mm 5 m/s 723 mmHg 92%
15:00 +26°C° 0 mm 5 m/s 723 mmHg 92%
16:00 +26°C° 0 mm 4 m/s 723 mmHg 91%
17:00 +27°C° 0 mm 4 m/s 723 mmHg 91%
18:00 +26°C° 0.1 mm 3 m/s 723 mmHg 91%
19:00 +26°C° 0.1 mm 3 m/s 723 mmHg 92%
20:00 +26°C° 0.1 mm 3 m/s 724 mmHg 92%
21:00 +26°C° 0.4 mm 4 m/s 724 mmHg 93%
22:00 +26°C° 0.4 mm 4 m/s 724 mmHg 94%
23:00 +26°C° 0.4 mm 5 m/s 724 mmHg 94%

14 August, Vineri

Timp Temperatura Precipitaţii Vânt Presiune Umiditate
00:00 +26°C° 0.1 mm 5 m/s 724 mmHg 95%
01:00 +26°C° 0.1 mm 5 m/s 723 mmHg 95%
02:00 +26°C° 0.1 mm 5 m/s 723 mmHg 95%
03:00 +26°C° 0.1 mm 5 m/s 723 mmHg 95%
04:00 +26°C° 0.1 mm 5 m/s 723 mmHg 95%
05:00 +26°C° 0.1 mm 5 m/s 723 mmHg 95%
06:00 +26°C° 0.1 mm 5 m/s 723 mmHg 95%
07:00 +26°C° 0.1 mm 5 m/s 723 mmHg 94%
08:00 +26°C° 0.1 mm 5 m/s 724 mmHg 93%
09:00 +27°C° 0.3 mm 5 m/s 724 mmHg 92%
10:00 +27°C° 0.3 mm 5 m/s 724 mmHg 91%
11:00 +27°C° 0.3 mm 6 m/s 724 mmHg 90%
12:00 +28°C° 0.4 mm 6 m/s 723 mmHg 88%
13:00 +28°C° 0.4 mm 6 m/s 723 mmHg 87%
14:00 +29°C° 0.4 mm 7 m/s 722 mmHg 86%
15:00 +28°C° 0.4 mm 7 m/s 722 mmHg 88%
16:00 +28°C° 0.4 mm 6 m/s 722 mmHg 89%
17:00 +27°C° 0.4 mm 6 m/s 722 mmHg 91%
18:00 +27°C° 0.2 mm 6 m/s 722 mmHg 91%
19:00 +26°C° 0.2 mm 6 m/s 723 mmHg 92%
20:00 +26°C° 0.2 mm 6 m/s 723 mmHg 92%
21:00 +26°C° 0 mm 6 m/s 723 mmHg 92%
22:00 +26°C° 0 mm 6 m/s 723 mmHg 93%
23:00 +26°C° 0 mm 6 m/s 723 mmHg 93%

15 August, Sâmbătă

Timp Temperatura Precipitaţii Vânt Presiune Umiditate
00:00 +26°C° 0 mm 6 m/s 723 mmHg 93%
01:00 +26°C° 0 mm 6 m/s 723 mmHg 93%
02:00 +26°C° 0 mm 6 m/s 722 mmHg 92%
03:00 +26°C° 0 mm 6 m/s 722 mmHg 92%
04:00 +26°C° 0 mm 5 m/s 722 mmHg 92%
05:00 +26°C° 0 mm 5 m/s 722 mmHg 92%
06:00 +26°C° 0 mm 5 m/s 723 mmHg 92%
07:00 +26°C° 0 mm 5 m/s 723 mmHg 91%
08:00 +26°C° 0 mm 5 m/s 724 mmHg 91%
09:00 +27°C° 0.3 mm 6 m/s 724 mmHg 89%
10:00 +28°C° 0.3 mm 6 m/s 724 mmHg 87%
11:00 +29°C° 0.3 mm 6 m/s 724 mmHg 85%
12:00 +29°C° 1 mm 6 m/s 723 mmHg 85%
13:00 +29°C° 1 mm 6 m/s 723 mmHg 84%
14:00 +29°C° 1 mm 6 m/s 722 mmHg 84%
15:00 +29°C° 0.7 mm 6 m/s 722 mmHg 85%
16:00 +29°C° 0.7 mm 6 m/s 722 mmHg 86%
17:00 +29°C° 0.7 mm 5 m/s 722 mmHg 86%
18:00 +28°C° 0.3 mm 5 m/s 722 mmHg 88%
19:00 +27°C° 0.3 mm 5 m/s 723 mmHg 89%
20:00 +27°C° 0.3 mm 4 m/s 723 mmHg 91%
21:00 +27°C° 0.1 mm 5 m/s 724 mmHg 91%
22:00 +26°C° 0.1 mm 5 m/s 724 mmHg 92%
23:00 +26°C° 0.1 mm 5 m/s 724 mmHg 93%

16 August, Duminică

Timp Temperatura Precipitaţii Vânt Presiune Umiditate
00:00 +26°C° 0 mm 5 m/s 724 mmHg 93%
01:00 +26°C° 0 mm 5 m/s 723 mmHg 93%
02:00 +26°C° 0 mm 5 m/s 723 mmHg 93%
03:00 +26°C° 0 mm 5 m/s 723 mmHg 93%
04:00 +26°C° 0 mm 5 m/s 723 mmHg 93%
05:00 +26°C° 0 mm 5 m/s 724 mmHg 93%
06:00 +26°C° 0 mm 5 m/s 724 mmHg 92%
07:00 +27°C° 0 mm 5 m/s 724 mmHg 91%
08:00 +27°C° 0 mm 6 m/s 725 mmHg 89%
09:00 +28°C° 0.2 mm 5 m/s 725 mmHg 87%
10:00 +29°C° 0.2 mm 5 m/s 725 mmHg 85%
11:00 +29°C° 0.2 mm 5 m/s 725 mmHg 82%
12:00 +30°C° 1.3 mm 5 m/s 724 mmHg 82%
13:00 +30°C° 1.3 mm 5 m/s 724 mmHg 81%
14:00 +32°C° 1.3 mm 5 m/s 723 mmHg 80%
15:00 +30°C° 0.8 mm 5 m/s 723 mmHg 82%
16:00 +30°C° 0.8 mm 5 m/s 723 mmHg 84%
17:00 +29°C° 0.8 mm 5 m/s 723 mmHg 86%
18:00 +29°C° 0.8 mm 5 m/s 723 mmHg 87%
19:00 +28°C° 0.8 mm 5 m/s 723 mmHg 89%
20:00 +27°C° 0.8 mm 5 m/s 724 mmHg 90%
21:00 +27°C° 0.4 mm 5 m/s 724 mmHg 91%
22:00 +27°C° 0.4 mm 5 m/s 724 mmHg 92%
23:00 +27°C° 0.4 mm 6 m/s 724 mmHg 92%
Arată mai mult